328  
ASUS43 KFSD 211602  
RWRFSD  
 
WEATHER ROUNDUP FOR SE SOUTH DAKOTA/SW MINNESOTA/NW IOWA  
NATIONAL WEATHER SERVICE SIOUX FALLS SD  
1000 AM CST MON JAN 21 2019  
 
NOTE: "FAIR" INDICATES FEW OR NO CLOUDS BELOW 12,000 FEET WITH NO  
SIGNIFICANT WEATHER AND OR S TO VISIBILITY
.  
 
 
SDZ038>040-050-052>070-211700-  
SOUTHEAST SOUTH DAKOTA  
 
CITY SKY/WX TMP DP RH WIND PRES REMARKS
 
BROOKINGS LGT SNOW 8 4 83 SE20G28 30.01S FOG WCI -11  
CHAMBERLAIN LGT SNOW 17 15 92 SE20 29.85R WCI 0  
HURON LGT SNOW 13 8 81 S25G38 29.92F WCI -7  
MADISON FLURRIES 9 9 100 SE18G26 29.97F WCI -10  
MITCHELL LGT SNOW 14 8 77 SE23G36 29.96F WCI -5  
SIOUX FALLS LGT SNOW 11 6 81 SE18G25 30.02F WCI -7  
WINNER CLOUDY 19 13 77 S22G30 29.77S HAZE WCI 2  
YANKTON CLOUDY 15 9 76 SE18 30.00F WCI -2  

 
 
MNZ071-072-080-081-089-090-097-098-211700-  
SOUTHWEST MINNESOTA  
 
CITY SKY/WX TMP DP RH WIND PRES REMARKS
 
FAIRMONT CLOUDY 7 0 73 SE22 30.20F WCI -14  
JACKSON CLOUDY 9 1 72 SE18G28 30.13F HAZE WCI -10  
LUVERNE LGT SNOW 10 5 79 SE22G32 30.06F WCI -9  
MARSHALL CLOUDY 8 3 80 SE22 30.11S WCI -12  
MONTEVIDEO CLOUDY 7 1 78 S20 30.15 HAZE WCI -13  
PIPESTONE LGT SNOW 9 5 85 S17G28 30.02F WCI -10  
REDWOOD FALLS LGT SNOW 6 0 76 SE20 30.18F WCI -14  
TRACY CLOUDY 9 4 81 SE18G26 30.10F HAZE WCI -10  
WINDOM CLOUDY 7 0 72 SE20G26 30.11F HAZE WCI -13  
WORTHINGTON FLURRIES 7 2 80 SE22G30 30.07F WCI -14  

 
 
IAZ001>003-012>014-020>022-031-032-NEZ013-014-SDZ071-211700-  
NORTHWEST IOWA  
 
CITY SKY/WX TMP DP RH WIND PRES REMARKS
 
CHEROKEE CLOUDY 11 5 77 SE16G22 30.13F WCI -6  
DENISON CLOUDY 14 7 73 SE14G23 30.13F WCI -1  
ESTHERVILLE CLOUDY 6 0 76 SE23G33 30.17F HAZE WCI -15  
ORANGE CITY CLOUDY 12 7 79 SE12G26 30.06F WCI -2  
SHELDON CLOUDY 10 7 85 SE24G32 30.06F WCI -10  
SIOUX CITY MOSUNNY 15 6 67 SE25G38 30.07F WCI -4  
SPENCER CLOUDY 10 2 69 SE26 30.13F WCI -11  
STORM LAKE CLOUDY 9 3 78 SE22 30.11F WCI -11  

 
 
ABBREVIATIONS USED IN REMARKS  
TC - TEMPERATURE IN CELSIUS  
WCI - WIND CHILL INDEX  
HX - HEAT INDEX  
VSB - VISIBILITY  
 
 
 
CLICK HERE TO GO TO PREVIOUS BULLETINS.

The Nexlab SD Page
The Nexlab IA Page
The Nexlab MN Page
The Nexlab NE Page Main Text Page